Location: Washington
(38.8950°N, 77.0370°W)
Time: 06:15:49
(UTC-04:00)

ISS - All Passes

Search period start: 21 April 2014 00:00
Search period end: 01 May 2014 00:00
Orbit: 414 x 419 km, 51.6° (Epoch: 21 April)

Date Brightness Start Highest point End Pass type
(mag) Time Alt. Az. Time Alt. Az. Time Alt. Az.
21 Apr - 14:11:32 10° SSW 14:14:23 27° SE 14:17:16 10° ENE daylight
21 Apr - 15:48:00 10° W 15:51:03 32° NNW 15:54:07 10° NE daylight
21 Apr - 17:27:32 10° NNW 17:28:36 11° NNW 17:29:41 10° N daylight
21 Apr - 19:05:47 10° N 19:06:35 11° N 19:07:23 10° NNE daylight
21 Apr - 20:41:14 10° NNW 20:44:12 28° NNE 20:47:10 10° E visible
21 Apr - 22:17:53 10° WNW 22:20:57 33° SW 22:24:00 10° SSE visible
22 Apr - 13:23:59 10° SSE 13:25:59 15° SE 13:28:00 10° E daylight
22 Apr - 14:59:07 10° WSW 15:02:24 53° NW 15:05:41 10° NE daylight
22 Apr - 16:37:59 10° NW 16:39:44 13° NNW 16:41:29 10° NNE daylight
22 Apr - 19:52:53 10° NNW 19:55:27 20° NNE 19:58:01 10° ENE daylight
22 Apr - 21:29:07 10° WNW 21:32:26 63° SW 21:35:45 10° SE visible
23 Apr - 14:10:25 10° SW 14:13:45 85° SE 14:17:06 10° NE daylight
23 Apr - 15:48:32 10° WNW 15:50:51 17° NNW 15:53:10 10° NNE daylight
23 Apr - 19:04:32 10° NNW 19:06:35 15° NNE 19:08:37 10° ENE daylight
23 Apr - 20:40:27 10° NW 20:43:48 71° NE 20:47:08 10° ESE visible
23 Apr - 22:18:58 10° WSW 22:20:05 11° SW 22:21:13 10° SSW visible
24 Apr - 13:21:54 10° SSW 13:25:05 45° SE 13:28:18 10° ENE daylight
24 Apr - 14:59:11 10° W 15:01:57 23° NNW 15:04:43 10° NNE daylight
24 Apr - 18:16:11 10° N 18:17:36 12° NNE 18:19:01 10° NE daylight
24 Apr - 19:51:50 10° NW 19:55:02 40° NNE 19:58:13 10° ESE daylight
24 Apr - 21:29:00 10° W 21:31:34 20° SW 21:34:06 10° S visible
25 Apr - 12:33:42 10° S 12:36:27 24° SE 12:39:13 10° ENE daylight
25 Apr - 14:09:57 10° W 14:13:03 35° NNW 14:16:09 10° NE daylight
25 Apr - 15:49:22 10° NNW 15:50:33 11° NNW 15:51:44 10° N daylight
25 Apr - 17:27:56 10° N 17:28:30 10° N 17:29:04 10° NNE daylight
25 Apr - 19:03:15 10° NNW 19:06:08 26° NNE 19:09:01 10° E daylight
25 Apr - 20:39:47 10° WNW 20:42:54 37° SW 20:46:01 10° SSE visible
26 Apr - 11:46:04 10° SSE 11:47:48 14° SE 11:49:31 10° E daylight
26 Apr - 13:20:52 10° WSW 13:24:09 59° NW 13:27:27 10° NE daylight
26 Apr - 14:59:34 10° NW 15:01:25 14° NNW 15:03:17 10° NNE daylight
26 Apr - 18:14:39 10° NNW 18:17:07 19° NNE 18:19:34 10° ENE daylight
26 Apr - 19:50:48 10° NW 19:54:08 71° SW 19:57:27 10° SE daylight
27 Apr - 12:31:56 10° SW 12:35:15 76° SE 12:38:35 10° NE daylight
27 Apr - 14:09:53 10° WNW 14:12:17 18° NNW 14:14:41 10° NNE daylight
27 Apr - 17:26:03 10° NNW 17:27:59 14° NNE 17:29:54 10° NE daylight
27 Apr - 19:01:54 10° NW 19:05:14 63° NE 19:08:32 10° ESE daylight
27 Apr - 20:39:59 10° W 20:41:33 13° SW 20:43:06 10° SSW visible
28 Apr - 11:43:14 10° SSW 11:46:22 39° SE 11:49:30 10° ENE daylight
28 Apr - 13:20:19 10° W 13:23:09 25° NNW 13:25:59 10° NNE daylight
28 Apr - 15:00:24 10° NNW 15:00:47 10° N 15:01:09 10° N daylight
28 Apr - 16:37:29 10° N 16:38:43 12° NNE 16:39:58 10° NE daylight
28 Apr - 18:13:03 10° NW 18:16:11 36° NNE 18:19:18 10° ESE daylight
28 Apr - 19:50:03 10° WNW 19:52:45 23° SW 19:55:26 10° S daylight
29 Apr - 10:54:53 10° S 10:57:28 21° SE 11:00:05 10° E daylight
29 Apr - 12:30:52 10° WSW 12:34:00 38° NNW 12:37:09 10° NE daylight
29 Apr - 14:10:07 10° NW 14:11:26 12° NNW 14:12:45 10° N daylight
29 Apr - 17:24:13 10° NNW 17:27:01 24° NNE 17:29:49 10° E daylight
29 Apr - 19:00:39 10° WNW 19:03:50 42° SW 19:06:59 10° SSE daylight
30 Apr - 10:07:19 10° SSE 10:08:35 12° SE 10:09:51 10° ESE daylight
30 Apr - 11:41:33 10° WSW 11:44:52 67° NW 11:48:11 10° NE daylight
30 Apr - 13:20:06 10° NW 13:22:04 15° NNW 13:24:03 10° NNE daylight
30 Apr - 16:35:24 10° NNW 16:37:44 18° NNE 16:40:04 10° ENE daylight
30 Apr - 18:11:27 10° NW 18:14:47 82° SW 18:18:06 10° SE daylight
